| time (UTC) | temp F | wind direction | speed knots | gust knots | rain 1hr in | rain 24hr in | rain mn in | humidity % | barometer mb |
| 20260509021502 | 52 | 176 | 0.0 | 0.0 | 0.00 | 0.00 | 0.00 | 67 | 1015.1 |
| 20260509020005 | 52 | 176 | 0.0 | 0.0 | 0.00 | 0.00 | 0.00 | 67 | 1015.3 |
| 20260509014500 | 53 | 176 | 0.0 | 0.0 | 0.00 | 0.00 | 0.00 | 68 | 1015.1 |
| 20260509013003 | 53 | 176 | 0.0 | 0.0 | 0.00 | 0.00 | 0.00 | 70 | 1014.9 |
| 20260509011502 | 53 | 176 | 0.0 | 0.0 | 0.00 | 0.00 | 0.00 | 72 | 1014.6 |
| 20260509010000 | 53 | 176 | 0.0 | 0.0 | 0.00 | 0.00 | 0.00 | 73 | 1014.6 |
| 20260509004600 | 54 | 201 | 0.0 | 0.0 | 0.00 | 0.00 | 0.00 | 74 | 1014.5 |
| 20260509001559 | 55 | 304 | 0.0 | 0.0 | 0.00 | 0.00 | 0.00 | 74 | 1014.5 |
| 20260509000120 | 55 | 279 | 0.0 | 0.0 | 0.00 | 0.00 | 0.00 | 74 | 1014.2 |
| 20260508234559 | 56 | 107 | 0.0 | 0.0 | 0.00 | 0.00 | 0.00 | 74 | 1014.1 |
| 20260508231558 | 57 | 143 | 0.0 | 0.0 | 0.00 | 0.00 | 0.00 | 73 | 1014.1 |
| 20260508230100 | 57 | 245 | 0.0 | 1.7 | 0.00 | 0.00 | 0.00 | 72 | 1014.1 |
| 20260508224557 | 58 | 58 | 0.0 | 2.6 | 0.00 | 0.00 | 0.00 | 71 | 1013.9 |
| 20260508221557 | 59 | 317 | 0.0 | 3.5 | 0.00 | 0.00 | 0.00 | 68 | 1014.1 |
| 20260508220056 | 59 | 113 | 0.0 | 1.7 | 0.00 | 0.00 | 0.00 | 67 | 1013.9 |
| 20260508214556 | 59 | 319 | 0.0 | 2.6 | 0.00 | 0.00 | 0.00 | 66 | 1013.8 |
| 20260508211557 | 60 | 290 | 0.0 | 2.6 | 0.00 | 0.00 | 0.00 | 63 | 1013.8 |
| 20260508210055 | 60 | 293 | 0.9 | 2.6 | 0.00 | 0.00 | 0.00 | 62 | 1013.7 |
| 20260508204557 | 61 | 264 | 0.9 | 5.2 | 0.00 | 0.00 | 0.00 | 63 | 1013.6 |
| 20260508203002 | 61 | 292 | 0.0 | 3.5 | 0.00 | 0.00 | 0.00 | 62 | 1013.6 |
| 20260508201600 | 62 | 262 | 0.0 | 0.0 | 0.00 | 0.00 | 0.00 | 61 | 1013.9 |
| 20260508200112 | 62 | 293 | 0.0 | 2.6 | 0.00 | 0.00 | 0.00 | 60 | 1014.0 |
| 20260508194602 | 62 | 152 | 0.9 | 3.5 | 0.00 | 0.00 | 0.00 | 60 | 1014.2 |
| 20260508191552 | 62 | 181 | 1.7 | 7.8 | 0.00 | 0.00 | 0.00 | 59 | 1014.7 |
| 20260508190053 | 61 | 150 | 0.0 | 5.2 | 0.00 | 0.00 | 0.00 | 61 | 1014.8 |
| 20260508184554 | 60 | 150 | 0.0 | 4.3 | 0.00 | 0.00 | 0.00 | 64 | 1015.1 |
| 20260508181603 | 60 | 280 | 0.0 | 3.5 | 0.00 | 0.00 | 0.00 | 61 | 1015.5 |
| 20260508180048 | 61 | 203 | 0.9 | 6.1 | 0.00 | 0.00 | 0.00 | 61 | 1015.7 |
| 20260508174552 | 61 | 139 | 1.7 | 9.6 | 0.00 | 0.00 | 0.00 | 60 | 1015.6 |
| 20260508171547 | 60 | 154 | 0.9 | 8.7 | 0.00 | 0.00 | 0.00 | 60 | 1016.1 |
| 20260508170053 | 62 | 307 | 3.5 | 9.6 | 0.00 | 0.00 | 0.00 | 56 | 1016.1 |
| 20260508164547 | 61 | 281 | 0.0 | 4.3 | 0.00 | 0.00 | 0.00 | 59 | 1016.5 |
| 20260508161541 | 60 | 221 | 0.9 | 2.6 | 0.00 | 0.00 | 0.00 | 57 | 1016.9 |
| 20260508160040 | 59 | 343 | 0.0 | 4.3 | 0.00 | 0.00 | 0.00 | 60 | 1016.8 |
| 20260508154602 | 59 | 282 | 0.0 | 7.0 | 0.00 | 0.00 | 0.00 | 60 | 1017.1 |
| 20260508151541 | 59 | 293 | 0.0 | 4.3 | 0.00 | 0.00 | 0.00 | 62 | 1017.1 |
| 20260508150041 | 60 | 291 | 0.0 | 0.0 | 0.00 | 0.00 | 0.00 | 59 | 1017.2 |
| 20260508144547 | 59 | 323 | 0.0 | 0.9 | 0.00 | 0.00 | 0.00 | 62 | 1017.2 |
| 20260508141536 | 59 | 250 | 0.0 | 4.3 | 0.00 | 0.00 | 0.00 | 62 | 1017.2 |
| 20260508140037 | 59 | 123 | 0.0 | 1.7 | 0.00 | 0.00 | 0.00 | 58 | 1017.4 |
| 20260508134548 | 59 | 337 | 0.0 | 0.0 | 0.00 | 0.00 | 0.00 | 57 | 1017.5 |
| 20260508131529 | 55 | 12 | 0.0 | 0.9 | 0.00 | 0.00 | 0.00 | 60 | 1017.5 |
| 20260508130029 | 55 | 353 | 0.0 | 0.9 | 0.00 | 0.00 | 0.00 | 61 | 1017.3 |
| 20260508124530 | 55 | 335 | 0.0 | 0.9 | 0.00 | 0.00 | 0.00 | 66 | 1017.2 |
| 20260508121528 | 53 | 350 | 0.0 | 0.9 | 0.00 | 0.00 | 0.00 | 69 | 1017.0 |
| 20260508120017 | 52 | 49 | 0.0 | 0.0 | 0.00 | 0.00 | 0.00 | 75 | 1016.8 |
| 20260508114513 | 49 | 50 | 0.0 | 0.0 | 0.00 | 0.00 | 0.00 | 76 | 1016.7 |
| 20260508111510 | 42 | 119 | 0.0 | 0.9 | 0.00 | 0.00 | 0.00 | 64 | 1016.1 |
| 20260508110008 | 41 | 321 | 0.0 | 0.0 | 0.00 | 0.00 | 0.00 | 64 | 1015.7 |
| 20260508104508 | 40 | 321 | 0.0 | 0.0 | 0.00 | 0.00 | 0.00 | 64 | 1015.7 |
| 20260508101601 | 41 | 321 | 0.0 | 0.0 | 0.00 | 0.00 | 0.00 | 63 | 1015.2 |
| 20260508100111 | 42 | 321 | 0.0 | 0.0 | 0.00 | 0.00 | 0.00 | 64 | 1015.0 |
| 20260508094604 | 42 | 321 | 0.0 | 0.0 | 0.00 | 0.00 | 0.00 | 64 | 1014.7 |
| 20260508091602 | 44 | 321 | 0.0 | 0.0 | 0.00 | 0.00 | 0.00 | 65 | 1014.4 |
| 20260508090109 | 44 | 338 | 0.0 | 0.9 | 0.00 | 0.00 | 0.00 | 64 | 1014.4 |
| 20260508084549 | 44 | 32 | 0.0 | 0.0 | 0.00 | 0.00 | 0.00 | 64 | 1014.2 |
| 20260508081600 | 44 | 30 | 0.0 | 0.0 | 0.00 | 0.00 | 0.00 | 64 | 1014.0 |
| 20260508080043 | 44 | 30 | 0.0 | 0.0 | 0.00 | 0.00 | 0.00 | 65 | 1013.9 |
| 20260508074545 | 45 | 30 | 0.0 | 0.0 | 0.00 | 0.00 | 0.00 | 66 | 1013.7 |
| 20260508071540 | 46 | 20 | 0.0 | 0.9 | 0.00 | 0.00 | 0.00 | 73 | 1013.5 |
| 20260508070045 | 46 | 7 | 0.0 | 0.9 | 0.00 | 0.00 | 0.00 | 73 | 1013.5 |
| 20260508064538 | 46 | 92 | 0.0 | 0.0 | 0.00 | 0.00 | 0.00 | 74 | 1013.4 |
| 20260508061541 | 45 | 149 | 0.0 | 0.0 | 0.00 | 0.00 | 0.00 | 72 | 1013.2 |
| 20260508060049 | 45 | 114 | 0.0 | 0.0 | 0.00 | 0.00 | 0.00 | 70 | 1013.3 |
| 20260508054537 | 45 | 80 | 0.0 | 0.9 | 0.00 | 0.00 | 0.00 | 66 | 1013.4 |
| 20260508051540 | 45 | 96 | 0.0 | 0.0 | 0.00 | 0.00 | 0.00 | 68 | 1013.5 |
| 20260508050033 | 46 | 96 | 0.0 | 0.0 | 0.00 | 0.00 | 0.00 | 72 | 1013.3 |
| 20260508044530 | 47 | 96 | 0.0 | 0.0 | 0.00 | 0.00 | 0.00 | 74 | 1013.2 |
| 20260508041527 | 47 | 25 | 0.0 | 1.7 | 0.00 | 0.00 | 0.00 | 72 | 1013.0 |
| 20260508040027 | 47 | 335 | 0.0 | 0.9 | 0.00 | 0.00 | 0.00 | 68 | 1013.1 |
| 20260508034537 | 47 | 67 | 0.0 | 0.9 | 0.00 | 0.00 | 0.00 | 68 | 1013.1 |
| 20260508031535 | 46 | 117 | 0.0 | 0.0 | 0.00 | 0.00 | 0.00 | 62 | 1013.0 |
| 20260508030026 | 46 | 14 | 0.0 | 0.0 | 0.00 | 0.00 | 0.00 | 62 | 1012.7 |
| 20260508024547 | 47 | 14 | 0.0 | 0.0 | 0.00 | 0.00 | 0.00 | 63 | 1012.6 |